DL3NBY Weather Reports


Display with metric or nautical units.
time (UTC)temp
F
wind
direction
speed
MPH
gust
MPH
rain 1hr
in
rain 24hr
in
rain mn
in
humidity
%
barometer
mb
20260505072100 61 0.0 2.0 0.00 0.01 0.01 90 1007.9
20260505071120 60 0 0.0 3.0 0.00 0.01 0.01 90 1008.0
20260505070054 60 0.0 0.0 0.00 0.01 0.01 93 1008.0
20260505065050 59 0.0 2.0 0.00 0.01 0.01 92 1008.0
20260505064047 59 0 0.0 2.0 0.00 0.01 0.01 93 1008.0
20260505063044 58 0.0 2.0 0.00 0.01 0.01 94 1007.9
20260505061038 56 0.0 0.0 0.00 0.01 0.01 98 1007.9
20260505060034 56 0.0 0.0 0.00 0.01 0.01 99 1007.9
20260505055052 56 0.0 0.0 0.00 0.01 0.01 99 1007.9
20260505054029 56 0.0 0.0 0.00 0.01 0.01 99 1008.0
20260505052022 55 0.0 0.0 0.00 0.01 0.01 99 1007.8
20260505051039 55 0.0 0.0 0.00 0.01 0.01 99 1007.9
20260505040057 54 0.0 2.0 0.00 0.01 0.01 99 1008.0
20260505035054 54 0.0 0.0 0.00 0.01 0.01 99 1007.9
20260505034051 54 0.0 0.0 0.00 0.01 0.01 99 1008.0
20260505033047 54 0.0 0.0 0.00 0.01 0.01 99 1008.2
20260505032045 54 0.0 0.0 0.00 0.01 0.01 99 1008.3
20260505031041 54 0.0 2.0 0.01 0.01 0.01 99 1008.4
20260505030038 54 0.0 0.0 0.01 0.01 0.01 99 1008.6
20260505025035 55 0.0 0.0 0.01 0.01 0.01 99 1008.7
20260505024032 55 0.0 0.0 0.01 0.01 0.01 99 1008.8
20260505023029 55 0.0 0.0 0.01 0.01 0.01 99 1008.9
20260505022025 55 225 0.0 2.0 0.01 0.01 0.01 99 1009.0
20260505021022 55 0.0 0.0 0.00 0.00 0.00 99 1008.9
20260505020019 55 0.0 0.0 0.00 0.00 0.00 99 1009.2
20260505014113 55 0.0 0.0 0.00 0.00 0.00 99 1009.6
20260505013110 55 0.0 0.0 0.00 0.00 0.00 99 1009.7
20260505012106 55 0.0 0.0 0.00 0.00 0.00 99 1009.8
20260505011106 55 0.0 0.0 0.00 0.00 0.00 99 1009.8
20260505010100 55 0.0 0.0 0.00 0.00 0.00 99 1009.9
20260505004054 56 0.0 0.0 0.00 0.00 0.00 97 1009.9
20260505003051 56 0.0 0.0 0.00 0.00 0.00 97 1010.1
20260505002048 57 0.0 0.0 0.00 0.00 0.00 96 1010.0
20260505001105 57 0.0 0.0 0.00 0.00 0.00 94 1010.1
20260505000041 57 0.0 0.0 0.00 0.00 0.00 92 1009.9
20260504235038 57 0.0 0.0 0.00 0.00 0.00 91 1010.1
20260504233032 58 0.0 0.0 0.00 0.00 0.00 88 1010.2
20260504232029 58 0.0 0.0 0.00 0.00 0.00 89 1010.2
20260504231025 58 0.0 0.0 0.00 0.00 0.00 87 1010.2
20260504230022 58 0.0 0.0 0.00 0.00 0.00 88 1010.3
20260504225019 58 0.0 1.0 0.00 0.00 0.00 88 1010.3
20260504224036 58 0.0 0.0 0.00 0.00 0.00 86 1010.5
20260504223113 58 0.0 0.0 0.00 0.00 0.00 88 1010.5
20260504222110 57 0.0 0.0 0.00 0.00 0.00 88 1010.5
20260504221110 57 0.0 0.0 0.00 0.00 0.00 89 1010.5
20260504220124 58 0.0 0.0 0.00 0.00 0.00 90 1010.6
20260504214057 59 0.0 0.0 0.00 0.00 0.00 87 1010.7
20260504213054 59 0.0 0.0 0.00 0.00 0.00 84 1010.7
20260504212051 59 0.0 0.0 0.00 0.00 0.00 86 1011.0
20260504211048 60 0.0 0.0 0.00 0.00 0.00 83 1011.0
20260504210044 59 0.0 0.0 0.00 0.00 0.00 83 1011.0
20260504205041 60 0.0 0.0 0.00 0.00 0.00 84 1010.9
20260504204038 59 0.0 0.0 0.00 0.00 0.00 82 1010.8
20260504203055 59 0.0 2.0 0.00 0.00 0.00 84 1010.7
20260504202032 58 0.0 0.0 0.00 0.00 0.00 87 1010.7
20260504201048 58 0.0 0.0 0.00 0.00 0.00 87 1010.7
20260504200025 58 0.0 0.0 0.00 0.00 0.00 87 1010.7
20260504194017 57 0.0 0.0 0.00 0.00 0.00 89 1010.7
20260504192109 59 0.0 0.0 0.00 0.00 0.00 87 1010.6
20260504191106 59 0.0 0.0 0.00 0.00 0.00 87 1010.6
20260504185100 61 0.0 0.0 0.00 0.00 0.00 85 1010.5
20260504184116 61 0.0 0.0 0.00 0.00 0.00 85 1010.4
20260504182110 62 0.0 0.0 0.00 0.00 0.00 83 1010.5
20260504181047 63 0.0 0.0 0.00 0.00 0.00 82 1010.5
20260504180044 64 0.0 0.0 0.00 0.00 0.00 81 1010.5
20260504175040 65 0.0 0.0 0.00 0.00 0.00 79 1010.3
20260504174037 66 0.0 0.0 0.00 0.00 0.00 78 1010.5
20260504173034 67 0.0 0.0 0.00 0.00 0.00 73 1010.4
20260504172031 68 0.0 0.0 0.00 0.00 0.00 68 1010.4
20260504171027 69 0.0 0.0 0.00 0.00 0.00 63 1010.5
20260504160106 71 180 0.0 3.0 0.00 0.00 0.00 56 1010.4
20260504141030 75 258 1.0 4.0 0.00 0.00 0.00 50 1011.0
20260504130108 74 0.0 2.0 0.00 0.00 0.00 45 1011.5
20260504100111 71 180 1.0 4.0 0.00 0.00 0.00 51 1012.9
20260504081036 65 191 3.0 8.0 0.00 0.00 0.00 59 1013.5